User: anonymous   Login
Location: Unspecified
(0.0000°N, 0.0000°E)
Time: 18:09:28
(UTC+00:00)
Language:

ESTCUBE 1 - Orbit

View from above orbital plane
View from above orbital plane
View from above satellite
View from above satellite

Ground track
Ground track

The orbit data is extracted from the following two-line orbital elements,

1 39161U 13021C   19085.17165946  .00000144  00000-0  30734-4 0  9999
2 39161  97.9911 171.5231 0008376 232.0162 128.0328 14.72171734315930
Epoch (UTC): 26 March 2019 04:07:11
Eccentricity: 0.0008376
inclination: 97.9911°
perigee height: 648 km
apogee height: 660 km
right ascension of ascending node: 171.5231°
argument of perigee: 232.0162°
revolutions per day: 14.72171734
mean anomaly at epoch: 128.0328°
orbit number at epoch: 31593

The dashed part of the orbit path shows where the satellite is in the earth's shadow,  

DLR